Regional Weather Roundup
Issued by NWS

Home | Current Version | Previous Version | Text Only | Print | Product List | Glossary On
Versions: 1 2 3 4 5 6 7 8 9 10 11 12 13 14 15 16 17 18 19 20 21 22 23 24 25 26 27 28 29 30 31 32 33 34 35 36 37 38 39 40 41 42 43 44 45 46 47 48 49 50
000
ASUS43 KIND 160009
RWRIN

WEATHER ROUNDUP FOR INDIANA
NATIONAL WEATHER SERVICE INDIANAPOLIS IN
700 PM EST FRI DEC 15 2017

NOTE: "FAIR" INDICATES FEW OR NO CLOUDS BELOW 12,000 FEET WITH NO
SIGNIFICANT WEATHER AND/OR OBSTRUCTIONS TO VISIBILITY.

* - STATION DOES NOT REPORT WEATHER SUCH AS PRECIPITATION OR FOG.

+ - STATION NOT QUALITY CONTROLLED BY THE NATIONAL WEATHER SERVICE.
    USE DATA WITH CAUTION...ESPECIALLY DEWPOINT AND RELATIVE
    HUMIDITY OBSERVATIONS.

INZ001>003-010>013-019-020-160100-
NORTHWEST INDIANA

CITY           SKY/WX    TMP DP  RH WIND       PRES   REMARKS
GARY /AIRPORT/ CLOUDY    34  18  51 SW18      29.93F WCI  23
KNOX *+        CLOUDY    32  23  69 SW9       29.94S WCI  24
LA PORTE +     MOCLDY    30  22  73 SW9       29.93S WCI  22
6HR MIN TEMP:  27; 6HR MAX TEMP:  30;

MICHIGAN CITY+ CLOUDY    32  23  69 SW9       29.93S WCI  24
MONTICELLO +   CLOUDY    32  17  53 SW12      29.98R WCI  23
6HR MIN TEMP:  30; 6HR MAX TEMP:  33;

RENSSELAER +   CLOUDY    32  12  43 SW14      29.97S WCI  22
VALPARAISO     CLOUDY    33  21  61 SW15      29.94R WCI  23
6HR MIN TEMP:  30; 6HR MAX TEMP:  34;


$$

LMZ046-743>745-160100-
SOUTHERN LAKE MICHIGAN

STATION/POSITION TIME  TEMP    WIND        PRES    WAVE
                       AIR SEA DIR/SP/G            HT
                 (UTC) (F)     (DEG/KT/KT) (MB)    (FT)
BURNS HARBOR     2340   33     220/ 10/ 16 1013.9S
MICHIGAN CITY    2340   32     210/ 17/ 19   N/A

$$

INZ004-005-014>016-021>024-160100-
NORTH CENTRAL INDIANA

CITY           SKY/WX    TMP DP  RH WIND       PRES   REMARKS
ELKHART        CLOUDY    30  19  64 W9        29.91S WCI  22
GOSHEN         CLOUDY    29  19  66 SW12      29.92R WCI  19
6HR MIN TEMP:  25; 6HR MAX TEMP:  29; 6HR PCP: TRACE;

LOGANSPORT +   CLOUDY    32  19  59 SW14      29.99R WCI  22
PERU/GRISSOM   CLOUDY    31  19  59 SW14      29.97R WCI  21
6HR MIN TEMP:  30; 6HR MAX TEMP:  32;

ROCHESTER +    CLOUDY    32  23  69 SW7       29.95S WCI  26
SOUTH BEND     CLOUDY    29  21  72 SW10      29.92S WCI  20
6HR MIN TEMP:  26; 6HR MAX TEMP:  29;

WARSAW +       CLOUDY    30  19  64 SW6       29.94R WCI  24

$$

INZ006>009-017-018-025>027-160100-
NORTHEAST INDIANA

CITY           SKY/WX    TMP DP  RH WIND       PRES   REMARKS
AUBURN +       CLOUDY    28  18  64 SW7       29.93R WCI  21
FORT WAYNE     CLOUDY    29  20  69 SW10      29.96R WCI  20
6HR MIN TEMP:  27; 6HR MAX TEMP:  29; 6HR PCP: TRACE;

HUNTINGTON +   CLOUDY    30  17  60 SW6       29.97R WCI  24
6HR MIN TEMP:  27; 6HR MAX TEMP:  31;

KENDALLVILLE + CLOUDY    28  18  66 SW10      29.91S WCI  18

$$

INZ028-029-035-036-043>045-051>053-160100-
WEST CENTRAL INDIANA

CITY           SKY/WX    TMP DP  RH WIND       PRES   REMARKS
CRAWFORDSVL +  CLOUDY    29  19  65 MISG      30.02R
6HR MIN TEMP:  28; 6HR MAX TEMP:  32;

GREENCASTLE +  CLOUDY    32  19  59 CALM      30.05R
LAFAYETTE      CLOUDY    32  19  58 SW6       30.00R WCI  26
6HR MIN TEMP:  30; 6HR MAX TEMP:  34;

TERRE HAUTE    CLOUDY    33  20  58 S6        30.06R WCI  28
6HR MIN TEMP:  31; 6HR MAX TEMP:  35;


$$

INZ030>032-037>040-046>048-054>057-064-065-160100-
CENTRAL INDIANA

CITY           SKY/WX    TMP DP  RH WIND       PRES   REMARKS
COLUMBUS       CLEAR     27  19  74 SW5       30.09R WCI  21
FRANKFORT +    CLOUDY    33  20  58 SW10      30.02R WCI  25
6HR MIN TEMP:  32; 6HR MAX TEMP:  36;

INDIANAPOLIS   CLOUDY    30  19  63 SW9       30.04R WCI  22
6HR MIN TEMP:  28; 6HR MAX TEMP:  32;

-EAGLE CREEK   CLOUDY    31  18  58 SW6       30.03R WCI  25
6HR MIN TEMP:  30; 6HR MAX TEMP:  32;

KOKOMO +       CLOUDY    31  20  63 SW13      30.00R WCI  21
6HR MIN TEMP:  28; 6HR MAX TEMP:  32; 6HR PCP: TRACE;

MARION +       CLOUDY    30  18  60 SW13      30.00R WCI  20
MT COMFORT *+  CLOUDY    30  23  74 SW8       30.03R WCI  23
SHELBYVILLE    CLOUDY    29  20  69 SW7       30.05R WCI  22
6HR MIN TEMP:  27; 6HR MAX TEMP:  32; 6HR PCP: TRACE;

ZIONSVILLE +   CLOUDY    29  18  63 SW12      30.02R WCI  20
6HR MIN TEMP:  28; 6HR MAX TEMP:  31;


$$

INZ033-034-041-042-049-050-058-059-160100-
EAST CENTRAL INDIANA

CITY           SKY/WX    TMP DP  RH WIND       PRES   REMARKS
MUNCIE         CLOUDY    31  16  54 SW9       29.99R WCI  23
6HR MIN TEMP:  30; 6HR MAX TEMP:  33;

RICHMOND +     MOCLDY    27  21  80 SW12      30.03R WCI  16

$$

INZ060-061-067>069-081>083-085>088-160100-
SOUTHWEST INDIANA

CITY           SKY/WX    TMP DP  RH WIND       PRES   REMARKS
EVANSVILLE     CLOUDY    37  27  67 SW6       30.13R WCI  32
6HR MIN TEMP:  37; 6HR MAX TEMP:  40;

HUNTINGBURG +  CLOUDY    32  24  72 SW7       30.11R WCI  26
6HR MIN TEMP:  32; 6HR MAX TEMP:  37;

WASHINGTON +   CLEAR     28  22  81 CALM      30.10R
6HR MIN TEMP:  28; 6HR MAX TEMP:  36;


$$

INZ062-063-066-070>080-084-089>092-160100-
SOUTH CENTRAL AND SOUTHEAST INDIANA

CITY           SKY/WX    TMP DP  RH WIND       PRES   REMARKS
BLOOMINGTON    MOCLDY    25  19  78 SW5       30.07R WCI  19
6HR MIN TEMP:  25; 6HR MAX TEMP:  33;

MADISON *+     CLOUDY    32  23  69 SW5       30.10R WCI  27
NORTH VERNON + CLEAR     27  21  80 SW5       30.09R WCI  21
SEYMOUR +      CLEAR     28  21  74 SW5       30.09R WCI  23

$$





USA.gov is the U.S. government's official web portal to all federal, state and local government web resources and services.